FW5380 Weather Reports


Display with metric or nautical units.
time (UTC)temp
F
wind
direction
speed
MPH
gust
MPH
rain 1hr
in
rain 24hr
in
rain mn
in
humidity
%
barometer
mb
20201204050039 29 206 0.0 0.0 0.00 0.00 0.00 93 1033.2
20201204044537 29 218 1.0 0.0 0.00 0.00 0.00 92 1032.8
20201204043036 29 213 1.0 0.0 0.00 0.00 0.00 92 1032.5
20201204041533 29 141 1.0 0.0 0.00 0.00 0.00 92 1032.5
20201204040033 29 146 0.0 0.0 0.00 0.00 0.00 92 1032.8
20201204034538 30 225 0.0 0.0 0.00 0.00 0.00 91 1032.5
20201204033048 30 225 0.0 0.0 0.00 0.00 0.00 91 1032.8
20201204031536 31 225 0.0 0.0 0.00 0.00 0.00 91 1032.5
20201204030055 31 225 0.0 0.0 0.00 0.00 0.00 90 1032.5
20201204024535 32 225 0.0 0.0 0.00 0.00 0.00 90 1032.5
20201204023045 32 225 0.0 0.0 0.00 0.00 0.00 90 1032.1
20201204021531 32 225 0.0 0.0 0.00 0.00 0.00 90 1032.1
20201204020034 32 225 0.0 0.0 0.00 0.00 0.00 90 1031.7
20201204014600 32 225 0.0 0.0 0.00 0.00 0.00 90 1031.7
20201204013051 32 225 0.0 0.0 0.00 0.00 0.00 90 1031.7
20201204011534 32 225 0.0 0.0 0.00 0.00 0.00 90 1031.7
20201204010047 32 225 0.0 0.0 0.00 0.00 0.00 89 1031.4
20201204004528 32 181 0.0 0.0 0.00 0.00 0.00 89 1031.4
20201204003044 32 142 0.0 0.0 0.00 0.00 0.00 89 1031.0
20201204001545 32 93 0.0 0.0 0.00 0.00 0.00 88 1031.0
20201204000105 32 67 0.0 0.0 0.00 0.00 0.00 87 1031.0
20201203234535 33 67 0.0 0.0 0.00 0.00 0.00 87 1031.0
20201203233037 33 67 0.0 0.0 0.00 0.00 0.00 87 1031.0
20201203231532 33 97 0.0 0.0 0.00 0.00 0.00 87 1030.7
20201203230105 33 69 0.0 0.0 0.00 0.00 0.00 86 1030.7
20201203224533 33 55 0.0 0.0 0.00 0.00 0.00 86 1030.7
20201203223039 34 353 0.0 0.0 0.00 0.00 0.00 86 1030.7
20201203221536 34 325 1.0 0.0 0.00 0.00 0.00 86 1030.7
20201203220101 34 345 0.0 0.0 0.00 0.00 0.00 86 1030.7
20201203214540 34 348 1.0 0.0 0.00 0.00 0.00 86 1030.7
20201203213044 34 342 1.0 0.0 0.00 0.00 0.00 87 1030.7
20201203211537 34 325 1.0 0.0 0.00 0.00 0.00 87 1030.7
20201203210030 34 300 2.0 0.0 0.00 0.00 0.00 87 1030.3
20201203204537 34 330 3.0 0.0 0.00 0.00 0.00 87 1030.7
20201203203047 34 325 1.0 0.0 0.00 0.00 0.00 88 1030.7
20201203201541 32 322 1.0 0.0 0.00 0.00 0.00 90 1030.7
20201203200043 32 335 2.0 0.0 0.00 0.00 0.00 91 1030.7
20201203194534 32 343 2.0 0.0 0.00 0.00 0.00 91 1031.0
20201203193051 32 354 2.0 0.0 0.00 0.00 0.00 91 1031.0
20201203191545 31 351 2.0 0.0 0.00 0.00 0.00 92 1031.0
20201203190047 31 357 1.0 0.0 0.00 0.00 0.00 93 1031.0
20201203184541 31 1 1.0 0.0 0.00 0.00 0.00 92 1031.4
20201203183028 31 359 3.0 0.0 0.00 0.00 0.00 92 1031.4
20201203181541 31 14 2.0 0.0 0.00 0.00 0.00 93 1031.4
20201203180043 31 21 1.0 0.0 0.00 0.00 0.00 93 1031.4
20201203174540 30 27 2.0 0.0 0.00 0.00 0.00 93 1031.4
20201203173035 30 45 0.0 0.0 0.00 0.00 0.00 93 1031.4
20201203171535 29 45 1.0 0.0 0.00 0.00 0.00 94 1031.4
20201203170106 28 36 0.0 0.0 0.00 0.00 0.00 95 1031.0
20201203164538 27 1 0.0 0.0 0.00 0.00 0.00 95 1030.7
20201203163040 25 180 1.0 0.0 0.00 0.00 0.00 95 1030.7
20201203161529 23 180 0.0 0.0 0.00 0.00 0.00 95 1030.3
20201203160055 23 180 0.0 0.0 0.00 0.00 0.00 95 1030.3
20201203154534 23 189 1.0 0.0 0.00 0.00 0.00 94 1030.3
20201203153046 22 202 0.0 0.0 0.00 0.00 0.00 94 1030.3
20201203151534 23 202 0.0 0.0 0.00 0.00 0.00 94 1030.3
20201203150036 22 184 0.0 0.0 0.00 0.00 0.00 94 1030.0
20201203144535 23 315 0.0 0.0 0.00 0.00 0.00 94 1030.0
20201203143035 23 179 2.0 0.0 0.00 0.00 0.00 94 1030.0
20201203141542 23 194 0.0 0.0 0.00 0.00 0.00 94 1030.0
20201203140043 24 147 0.0 0.0 0.00 0.00 0.00 93 1029.6
20201203134534 24 179 0.0 0.0 0.00 0.00 0.00 93 1029.6
20201203133033 24 215 1.0 0.0 0.00 0.00 0.00 94 1030.0
20201203131540 24 223 1.0 0.0 0.00 0.00 0.00 94 1030.0
20201203130044 24 150 1.0 0.0 0.00 0.00 0.00 94 1030.0
20201203124530 24 193 2.0 0.0 0.00 0.00 0.00 93 1030.0
20201203123033 25 183 1.0 0.0 0.00 0.00 0.00 93 1030.0
20201203121534 24 175 2.0 0.0 0.00 0.00 0.00 94 1030.0
20201203120053 23 180 2.0 0.0 0.00 0.00 0.00 94 1030.0
20201203114535 23 280 0.0 0.0 0.00 0.00 0.00 94 1030.0
20201203113038 24 180 0.0 0.0 0.00 0.00 0.00 94 1030.0
20201203111535 24 180 1.0 0.0 0.00 0.00 0.00 93 1030.3
20201203104558 25 180 2.0 0.0 0.00 0.00 0.00 94 1030.3
20201203103036 24 180 2.0 0.0 0.00 0.00 0.00 94 1030.3
20201203101530 23 180 2.0 0.0 0.00 0.00 0.00 93 1030.3
20201203100039 23 56 0.0 0.0 0.00 0.00 0.00 93 1030.3
20201203094555 23 89 0.0 0.0 0.00 0.00 0.00 93 1030.3
20201203093042 23 157 0.0 0.0 0.00 0.00 0.00 92 1030.3
20201203091529 23 157 0.0 0.0 0.00 0.00 0.00 91 1030.3
20201203090032 24 157 0.0 0.0 0.00 0.00 0.00 91 1030.0
20201203084532 25 159 0.0 0.0 0.00 0.00 0.00 91 1030.0
20201203083034 24 148 1.0 0.0 0.00 0.00 0.00 90 1030.0
20201203081535 26 314 0.0 0.0 0.00 0.00 0.00 90 1030.0
20201203080033 25 178 2.0 0.0 0.00 0.00 0.00 91 1030.0
20201203074541 25 190 2.0 0.0 0.00 0.00 0.00 89 1030.3
20201203073036 26 187 2.0 0.0 0.00 0.00 0.00 89 1030.3
20201203071611 27 180 2.0 0.0 0.00 0.00 0.00 89 1030.3
20201203070034 27 178 3.0 0.0 0.00 0.00 0.00 89 1030.7
20201203064537 27 173 3.0 0.0 0.00 0.00 0.00 90 1030.7
20201203063030 26 189 2.0 0.0 0.00 0.00 0.00 90 1030.7
20201203061532 26 173 1.0 0.0 0.00 0.00 0.00 90 1030.7
20201203060050 26 181 2.0 0.0 0.00 0.00 0.00 91 1030.7
20201203054530 25 29 0.0 0.0 0.00 0.00 0.00 90 1030.7
20201203053040 25 180 0.0 0.0 0.00 0.00 0.00 88 1030.7
20201203051537 26 180 0.0 0.0 0.00 0.00 0.00 88 1030.7